Location: Sperry Observatory
(40.6664°N, 74.3236°W)
Time: 09:23:53
(UTC-04:00)

UOSAT-12 - Visible Passes

Search period start: 01 July 2016 00:00
Search period end: 11 July 2016 00:00
Orbit: 623 x 631 km, 64.6° (Epoch: 30 June)

Date Brightness Start Highest point End Pass type
(mag) Time Alt. Az. Time Alt. Az. Time Alt. Az.
01 Jul 7.3 01:01:20 10° NNW 01:05:23 68° N 01:05:23 68° N visible
01 Jul 9.0 23:41:47 10° N 23:45:25 23° NE 23:47:01 19° ENE visible
02 Jul 8.3 01:21:22 10° NW 01:24:16 34° WNW 01:24:16 34° WNW visible
03 Jul 7.8 00:01:12 10° NNW 00:05:33 44° NE 00:05:57 42° ENE visible
03 Jul 9.3 01:42:00 10° WNW 01:43:13 15° WNW 01:43:13 15° WNW visible
03 Jul 9.5 22:42:15 10° N 22:44:48 15° NE 22:47:19 10° ENE visible
04 Jul 7.3 00:20:57 10° NNW 00:24:58 69° NW 00:24:58 69° NW visible
04 Jul 8.7 23:01:16 10° N 23:05:06 26° NE 23:06:45 21° E visible
05 Jul 8.4 00:41:05 10° NW 00:44:02 31° W 00:44:02 31° W visible
05 Jul 7.5 23:20:45 10° NNW 23:25:13 51° NE 23:25:52 47° E visible
06 Jul 9.4 01:01:56 10° WNW 01:03:09 14° W 01:03:09 14° W visible
06 Jul 9.3 22:01:36 10° N 22:04:32 16° NE 22:07:25 10° E visible
06 Jul 7.1 23:40:35 10° NW 23:45:01 73° WSW 23:45:01 73° WSW visible
07 Jul 8.4 22:20:46 10° NNW 22:24:47 30° NE 22:26:57 20° E visible
08 Jul 8.4 00:00:49 10° NW 00:04:13 30° W 00:04:13 30° W visible
08 Jul 9.6 21:02:51 10° NNE 21:03:49 11° NE 21:04:46 10° NE visible
08 Jul 7.3 22:40:20 10° NNW 22:44:51 61° NE 22:46:12 41° ESE visible
09 Jul 9.4 00:21:59 10° WNW 00:23:29 14° W 00:23:29 14° W visible
09 Jul 9.0 21:21:01 10° N 21:24:14 19° NE 21:27:26 10° E visible
09 Jul 7.2 23:00:14 10° NW 23:04:43 61° WSW 23:05:29 52° SSW visible
10 Jul 8.1 21:40:17 10° NNW 21:44:27 34° NE 21:47:33 16° ESE visible
10 Jul 8.5 23:20:36 10° NW 23:24:25 27° WSW 23:24:50 26° WSW visible
